| time (UTC) | temp F | wind direction | speed MPH | gust MPH | rain 1hr in | rain 24hr in | rain mn in | humidity % | barometer mb |
| 20260504035152 | 44 | 0 | 0.0 | 2.0 | 0.00 | 0.02 | 0.02 | 99 | 1014.8 |
| 20260504034432 | 44 | 0 | 1.0 | 2.0 | 0.00 | 0.02 | 0.02 | 98 | 1014.8 |
| 20260504033928 | 44 | 201 | 1.0 | 2.0 | 0.00 | 0.02 | 0.02 | 98 | 1014.6 |
| 20260504033428 | 44 | 202 | 1.0 | 2.0 | 0.00 | 0.02 | 0.02 | 98 | 1014.6 |
| 20260504032929 | 44 | 0 | 1.0 | 2.0 | 0.00 | 0.02 | 0.02 | 98 | 1014.6 |
| 20260504032646 | 44 | 201 | 0.0 | 2.0 | 0.00 | 0.02 | 0.02 | 98 | 1014.6 |
| 20260504031929 | 44 | 194 | 0.0 | 2.0 | 0.00 | 0.02 | 0.02 | 98 | 1014.6 |
| 20260504031429 | 44 | 0 | 0.0 | 2.0 | 0.00 | 0.02 | 0.02 | 97 | 1014.6 |
| 20260504030929 | 44 | 0 | 0.0 | 2.0 | 0.00 | 0.02 | 0.02 | 96 | 1014.6 |
| 20260504030428 | 44 | 0 | 0.0 | 2.0 | 0.00 | 0.02 | 0.02 | 96 | 1014.6 |
| 20260504025929 | 44 | 0 | 1.0 | 2.0 | 0.00 | 0.02 | 0.02 | 96 | 1014.6 |
| 20260504025428 | 44 | 0 | 0.0 | 2.0 | 0.00 | 0.02 | 0.02 | 95 | 1014.6 |
| 20260504024929 | 44 | 0 | 0.0 | 0.0 | 0.00 | 0.02 | 0.02 | 94 | 1014.6 |
| 20260504024653 | 45 | 0 | 0.0 | 2.0 | 0.00 | 0.02 | 0.02 | 94 | 1014.5 |
| 20260504023930 | 45 | 0 | 1.0 | 2.0 | 0.00 | 0.02 | 0.02 | 94 | 1014.5 |
| 20260504023426 | 45 | 199 | 1.0 | 2.0 | 0.00 | 0.02 | 0.02 | 93 | 1014.6 |
| 20260504023146 | 45 | 196 | 0.0 | 2.0 | 0.00 | 0.02 | 0.02 | 93 | 1014.6 |
| 20260504022426 | 45 | 0 | 0.0 | 2.0 | 0.00 | 0.02 | 0.02 | 92 | 1014.6 |
| 20260504021926 | 46 | 0 | 0.0 | 2.0 | 0.00 | 0.02 | 0.02 | 92 | 1014.5 |
| 20260504021427 | 46 | 0 | 0.0 | 2.0 | 0.00 | 0.02 | 0.02 | 91 | 1014.5 |
| 20260504020925 | 46 | 204 | 0.0 | 2.0 | 0.00 | 0.02 | 0.02 | 90 | 1014.5 |
| 20260504020424 | 46 | 0 | 1.0 | 2.0 | 0.00 | 0.02 | 0.02 | 90 | 1014.5 |
| 20260504015925 | 46 | 206 | 0.0 | 2.0 | 0.00 | 0.02 | 0.02 | 90 | 1014.4 |
| 20260504015424 | 46 | 0 | 0.0 | 0.0 | 0.00 | 0.02 | 0.02 | 89 | 1014.3 |
| 20260504014924 | 47 | 0 | 0.0 | 2.0 | 0.00 | 0.02 | 0.02 | 89 | 1014.3 |
| 20260504014642 | 47 | 0 | 1.0 | 2.0 | 0.00 | 0.02 | 0.02 | 88 | 1014.2 |
| 20260504014150 | 47 | 0 | 1.0 | 2.0 | 0.00 | 0.02 | 0.02 | 86 | 1014.2 |
| 20260504013647 | 47 | 213 | 2.0 | 2.0 | 0.00 | 0.02 | 0.02 | 83 | 1014.2 |
| 20260504013130 | 48 | 219 | 2.0 | 2.0 | 0.00 | 0.02 | 0.02 | 83 | 1014.2 |
| 20260504013014 | 47 | 216 | 2.0 | 2.0 | 0.00 | 0.02 | 0.02 | 82 | 1014.1 |
| 20260504011922 | 48 | 220 | 2.0 | 3.0 | 0.00 | 0.02 | 0.02 | 82 | 1014.2 |
| 20260504011423 | 49 | 220 | 2.0 | 3.0 | 0.00 | 0.02 | 0.02 | 82 | 1014.2 |
| 20260504010922 | 49 | 217 | 2.0 | 3.0 | 0.00 | 0.02 | 0.02 | 78 | 1014.2 |
| 20260504010423 | 49 | 218 | 2.0 | 3.0 | 0.00 | 0.02 | 0.02 | 76 | 1014.2 |
| 20260504005923 | 49 | 212 | 2.0 | 3.0 | 0.00 | 0.02 | 0.02 | 74 | 1014.2 |
| 20260504005644 | 50 | 217 | 2.0 | 3.0 | 0.00 | 0.02 | 0.02 | 73 | 1014.1 |
| 20260504004921 | 50 | 207 | 2.0 | 3.0 | 0.00 | 0.02 | 0.02 | 73 | 1014.1 |
| 20260504004416 | 51 | 193 | 2.0 | 3.0 | 0.00 | 0.02 | 0.02 | 71 | 1014.2 |
| 20260504003916 | 51 | 208 | 2.0 | 3.0 | 0.00 | 0.02 | 0.02 | 73 | 1014.3 |
| 20260504003417 | 52 | 190 | 2.0 | 3.0 | 0.00 | 0.02 | 0.02 | 69 | 1014.3 |
| 20260504002917 | 52 | 191 | 2.0 | 2.0 | 0.00 | 0.02 | 0.02 | 66 | 1014.3 |
| 20260504002417 | 53 | 199 | 2.0 | 2.0 | 0.00 | 0.02 | 0.02 | 63 | 1014.3 |
| 20260504001917 | 53 | 202 | 1.0 | 2.0 | 0.00 | 0.02 | 0.02 | 63 | 1014.2 |
| 20260504001417 | 54 | 191 | 0.0 | 2.0 | 0.00 | 0.02 | 0.02 | 61 | 1014.1 |
| 20260504000917 | 55 | 0 | 0.0 | 1.0 | 0.00 | 0.02 | 0.02 | 59 | 1014.2 |
| 20260504000417 | 56 | 0 | 0.0 | 3.0 | 0.00 | 0.02 | 0.02 | 58 | 1014.2 |
| 20260503235917 | 57 | 36 | 0.0 | 3.0 | 0.00 | 0.02 | 0.02 | 56 | 1014.1 |
| 20260503235415 | 58 | 41 | 0.0 | 2.0 | 0.00 | 0.02 | 0.02 | 55 | 1014.1 |
| 20260503234914 | 58 | 0 | 0.0 | 2.0 | 0.00 | 0.02 | 0.02 | 53 | 1014.1 |
| 20260503234412 | 60 | 344 | 1.0 | 2.0 | 0.00 | 0.02 | 0.02 | 51 | 1014.1 |
| 20260503233911 | 61 | 240 | 2.0 | 3.0 | 0.00 | 0.02 | 0.02 | 49 | 1014.1 |
| 20260503233411 | 62 | 222 | 2.0 | 3.0 | 0.00 | 0.02 | 0.02 | 45 | 1014.1 |
| 20260503232911 | 63 | 195 | 1.0 | 2.0 | 0.00 | 0.02 | 0.02 | 43 | 1014.1 |
| 20260503232631 | 65 | 193 | 0.0 | 2.0 | 0.00 | 0.02 | 0.02 | 41 | 1014.1 |
| 20260503231912 | 66 | 0 | 0.0 | 4.0 | 0.00 | 0.02 | 0.02 | 38 | 1014.1 |
| 20260503231412 | 65 | 0 | 1.0 | 4.0 | 0.00 | 0.02 | 0.02 | 38 | 1014.0 |
| 20260503230912 | 65 | 0 | 1.0 | 4.0 | 0.00 | 0.02 | 0.02 | 37 | 1014.0 |
| 20260503230412 | 65 | 186 | 1.0 | 4.0 | 0.00 | 0.02 | 0.02 | 35 | 1014.0 |
| 20260503230132 | 64 | 313 | 1.0 | 5.0 | 0.00 | 0.02 | 0.02 | 36 | 1014.1 |
| 20260503225412 | 64 | 296 | 2.0 | 5.0 | 0.00 | 0.02 | 0.02 | 34 | 1014.1 |
| 20260503225132 | 64 | 342 | 2.0 | 6.0 | 0.00 | 0.02 | 0.02 | 35 | 1014.1 |
| 20260503224630 | 64 | 269 | 2.0 | 6.0 | 0.00 | 0.02 | 0.02 | 35 | 1014.2 |
| 20260503223909 | 64 | 153 | 3.0 | 8.0 | 0.00 | 0.02 | 0.02 | 35 | 1014.3 |
| 20260503223407 | 64 | 152 | 3.0 | 8.0 | 0.00 | 0.02 | 0.02 | 35 | 1014.2 |
| 20260503222907 | 64 | 260 | 2.0 | 7.0 | 0.00 | 0.02 | 0.02 | 35 | 1014.2 |
| 20260503222407 | 65 | 244 | 2.0 | 7.0 | 0.00 | 0.02 | 0.02 | 36 | 1014.2 |
| 20260503221907 | 65 | 317 | 2.0 | 7.0 | 0.00 | 0.02 | 0.02 | 35 | 1014.3 |
| 20260503221407 | 64 | 85 | 1.0 | 6.0 | 0.00 | 0.02 | 0.02 | 35 | 1014.3 |
| 20260503220907 | 64 | 324 | 3.0 | 9.0 | 0.00 | 0.02 | 0.02 | 35 | 1014.3 |
| 20260503220407 | 64 | 9 | 3.0 | 9.0 | 0.00 | 0.02 | 0.02 | 36 | 1014.4 |
| 20260503215907 | 64 | 0 | 3.0 | 9.0 | 0.00 | 0.02 | 0.02 | 36 | 1014.3 |
| 20260503215405 | 64 | 322 | 2.0 | 9.0 | 0.00 | 0.02 | 0.02 | 36 | 1014.3 |
| 20260503214904 | 64 | 5 | 2.0 | 8.0 | 0.00 | 0.02 | 0.02 | 37 | 1014.2 |
| 20260503214405 | 63 | 208 | 3.0 | 8.0 | 0.00 | 0.02 | 0.02 | 36 | 1014.2 |
| 20260503213905 | 64 | 197 | 3.0 | 9.0 | 0.00 | 0.02 | 0.02 | 36 | 1014.2 |
| 20260503213402 | 63 | 114 | 3.0 | 9.0 | 0.00 | 0.02 | 0.02 | 37 | 1014.3 |
| 20260503212902 | 63 | 269 | 4.0 | 8.0 | 0.00 | 0.02 | 0.02 | 37 | 1014.2 |
| 20260503212402 | 63 | 138 | 3.0 | 8.0 | 0.00 | 0.02 | 0.02 | 39 | 1014.2 |
| 20260503211901 | 63 | 200 | 3.0 | 8.0 | 0.00 | 0.02 | 0.02 | 38 | 1014.2 |
| 20260503211625 | 63 | 196 | 3.0 | 8.0 | 0.00 | 0.02 | 0.02 | 37 | 1014.2 |
| 20260503210902 | 63 | 299 | 3.0 | 9.0 | 0.00 | 0.02 | 0.02 | 38 | 1014.2 |
| 20260503210402 | 62 | 187 | 4.0 | 9.0 | 0.00 | 0.02 | 0.02 | 39 | 1014.2 |
| 20260503205902 | 62 | 171 | 4.0 | 9.0 | 0.00 | 0.02 | 0.02 | 38 | 1014.2 |
| 20260503205403 | 62 | 147 | 4.0 | 8.0 | 0.00 | 0.02 | 0.02 | 38 | 1014.2 |
| 20260503204900 | 62 | 277 | 4.0 | 10.0 | 0.00 | 0.02 | 0.02 | 37 | 1014.3 |
| 20260503204359 | 63 | 208 | 3.0 | 10.0 | 0.00 | 0.02 | 0.02 | 37 | 1014.3 |
| 20260503204127 | 62 | 272 | 2.0 | 6.0 | 0.00 | 0.02 | 0.02 | 38 | 1014.1 |
| 20260503203400 | 62 | 151 | 3.0 | 10.0 | 0.00 | 0.02 | 0.02 | 36 | 1014.3 |
| 20260503202859 | 62 | 0 | 3.0 | 10.0 | 0.00 | 0.02 | 0.02 | 38 | 1014.3 |
| 20260503202359 | 62 | 247 | 3.0 | 10.0 | 0.00 | 0.02 | 0.02 | 37 | 1014.2 |
| 20260503201900 | 62 | 189 | 3.0 | 10.0 | 0.00 | 0.02 | 0.02 | 39 | 1014.2 |
| 20260503201400 | 62 | 213 | 3.0 | 9.0 | 0.00 | 0.02 | 0.02 | 38 | 1014.3 |
| 20260503200900 | 62 | 243 | 2.0 | 7.0 | 0.00 | 0.02 | 0.02 | 38 | 1014.3 |
| 20260503200627 | 61 | 241 | 4.0 | 10.0 | 0.00 | 0.02 | 0.02 | 38 | 1014.5 |
| 20260503195858 | 61 | 223 | 4.0 | 11.0 | 0.00 | 0.02 | 0.02 | 38 | 1014.6 |
| 20260503195355 | 61 | 233 | 4.0 | 11.0 | 0.00 | 0.01 | 0.01 | 39 | 1014.7 |
| 20260503194856 | 62 | 231 | 4.0 | 11.0 | 0.00 | 0.01 | 0.01 | 38 | 1014.7 |
| 20260503194355 | 61 | 256 | 4.0 | 10.0 | 0.00 | 0.01 | 0.01 | 39 | 1014.8 |
| 20260503193855 | 61 | 207 | 4.0 | 11.0 | 0.00 | 0.01 | 0.01 | 40 | 1014.8 |
| 20260503193616 | 61 | 92 | 4.0 | 11.0 | 0.00 | 0.01 | 0.01 | 40 | 1014.9 |
| 20260503192856 | 61 | 234 | 4.0 | 10.0 | 0.00 | 0.01 | 0.01 | 40 | 1015.0 |
| 20260503192356 | 61 | 253 | 3.0 | 9.0 | 0.00 | 0.01 | 0.01 | 39 | 1015.0 |
| 20260503191855 | 61 | 358 | 2.0 | 8.0 | 0.00 | 0.01 | 0.01 | 42 | 1015.0 |
| 20260503191355 | 60 | 262 | 3.0 | 8.0 | 0.00 | 0.01 | 0.01 | 39 | 1015.1 |
| 20260503191116 | 60 | 235 | 4.0 | 8.0 | 0.00 | 0.01 | 0.01 | 39 | 1015.2 |
| 20260503190615 | 61 | 314 | 3.0 | 8.0 | 0.00 | 0.01 | 0.01 | 38 | 1015.3 |
| 20260503185856 | 60 | 223 | 4.0 | 13.0 | 0.00 | 0.01 | 0.01 | 39 | 1015.3 |
| 20260503185352 | 60 | 184 | 4.0 | 13.0 | 0.00 | 0.01 | 0.01 | 38 | 1015.4 |
| 20260503184852 | 60 | 251 | 3.0 | 9.0 | 0.00 | 0.01 | 0.01 | 38 | 1015.5 |
| 20260503184353 | 60 | 85 | 3.0 | 9.0 | 0.00 | 0.01 | 0.01 | 39 | 1015.5 |
| 20260503183853 | 60 | 254 | 3.0 | 13.0 | 0.00 | 0.01 | 0.01 | 37 | 1015.5 |
| 20260503183350 | 60 | 302 | 3.0 | 13.0 | 0.00 | 0.01 | 0.01 | 38 | 1015.5 |
| 20260503183336 | 60 | 100 | 3.0 | 8.0 | 0.00 | 0.01 | 0.01 | 37 | 1015.7 |
| 20260503182350 | 60 | 22 | 3.0 | 9.0 | 0.00 | 0.01 | 0.01 | 38 | 1015.7 |
| 20260503181851 | 59 | 299 | 3.0 | 9.0 | 0.00 | 0.01 | 0.01 | 37 | 1015.6 |
| 20260503181351 | 59 | 321 | 3.0 | 10.0 | 0.00 | 0.01 | 0.01 | 38 | 1015.7 |
| 20260503180850 | 58 | 153 | 4.0 | 12.0 | 0.00 | 0.01 | 0.01 | 39 | 1015.8 |
| 20260503180348 | 58 | 312 | 5.0 | 13.0 | 0.00 | 0.01 | 0.01 | 39 | 1015.9 |
| 20260503175848 | 58 | 250 | 5.0 | 13.0 | 0.00 | 0.01 | 0.01 | 39 | 1015.9 |
| 20260503175348 | 59 | 224 | 4.0 | 10.0 | 0.00 | 0.01 | 0.01 | 40 | 1015.8 |
| 20260503174847 | 58 | 242 | 3.0 | 9.0 | 0.00 | 0.01 | 0.01 | 39 | 1015.8 |
| 20260503174347 | 58 | 242 | 4.0 | 9.0 | 0.00 | 0.01 | 0.01 | 39 | 1015.9 |
| 20260503173847 | 58 | 244 | 4.0 | 9.0 | 0.00 | 0.01 | 0.01 | 41 | 1016.0 |
| 20260503173347 | 58 | 291 | 4.0 | 9.0 | 0.00 | 0.01 | 0.01 | 40 | 1016.0 |
| 20260503173107 | 58 | 172 | 3.0 | 9.0 | 0.00 | 0.01 | 0.01 | 40 | 1016.0 |
| 20260503172349 | 58 | 225 | 3.0 | 11.0 | 0.00 | 0.01 | 0.01 | 40 | 1016.0 |
| 20260503171849 | 57 | 215 | 4.0 | 11.0 | 0.00 | 0.01 | 0.01 | 40 | 1016.1 |
| 20260503171349 | 57 | 319 | 3.0 | 8.0 | 0.00 | 0.01 | 0.01 | 42 | 1016.3 |
| 20260503170849 | 57 | 303 | 3.0 | 10.0 | 0.00 | 0.01 | 0.01 | 40 | 1016.3 |
| 20260503170346 | 56 | 227 | 4.0 | 13.0 | 0.00 | 0.01 | 0.01 | 40 | 1016.5 |
| 20260503150845 | 53 | 272 | 3.0 | 15.0 | 0.00 | 0.00 | 0.00 | 47 | 1017.0 |
| 20260503150341 | 53 | 352 | 4.0 | 15.0 | 0.00 | 0.00 | 0.00 | 46 | 1017.1 |
| 20260503150318 | 53 | 50 | 4.0 | 13.0 | 0.00 | 0.00 | 0.00 | 48 | 1017.0 |
| 20260503131334 | 50 | 4 | 4.0 | 11.0 | 0.00 | 0.00 | 0.00 | 56 | 1016.5 |
| 20260503130831 | 50 | 247 | 4.0 | 11.0 | 0.00 | 0.00 | 0.00 | 56 | 1016.3 |
| 20260503130332 | 50 | 261 | 3.0 | 8.0 | 0.00 | 0.00 | 0.00 | 58 | 1016.3 |
| 20260503110757 | 47 | 224 | 3.0 | 9.0 | 0.00 | 0.00 | 0.00 | 67 | 1014.7 |
| 20260503110257 | 47 | 357 | 2.0 | 6.0 | 0.00 | 0.00 | 0.00 | 67 | 1014.6 |
| 20260503100256 | 49 | 213 | 2.0 | 6.0 | 0.00 | 0.00 | 0.00 | 63 | 1013.5 |
| 20260503090218 | 49 | 207 | 3.0 | 7.0 | 0.00 | 0.00 | 0.00 | 64 | 1012.8 |
| 20260503081422 | 49 | 276 | 2.0 | 4.0 | 0.00 | 0.00 | 0.00 | 75 | 1011.8 |
| 20260503080907 | 49 | 210 | 2.0 | 3.0 | 0.00 | 0.00 | 0.00 | 76 | 1011.8 |
| 20260503080131 | 49 | 225 | 2.0 | 3.0 | 0.00 | 0.00 | 0.00 | 75 | 1011.7 |
| 20260503072615 | 49 | 221 | 2.0 | 3.0 | 0.00 | 0.00 | 0.00 | 79 | 1011.4 |
| 20260503072559 | 49 | 198 | 2.0 | 3.0 | 0.00 | 0.00 | 0.00 | 79 | 1011.3 |
| 20260503071616 | 49 | 209 | 2.0 | 4.0 | 0.00 | 0.00 | 0.00 | 79 | 1011.3 |
| 20260503071555 | 49 | 184 | 2.0 | 4.0 | 0.00 | 0.00 | 0.00 | 80 | 1011.2 |
| 20260503070600 | 49 | 223 | 2.0 | 3.0 | 0.00 | 0.00 | 0.00 | 81 | 1011.1 |
| 20260503060322 | 49 | 206 | 2.0 | 3.0 | 0.00 | 0.00 | 0.00 | 93 | 1010.8 |
| 20260503055100 | 49 | 215 | 2.0 | 5.0 | 0.00 | 0.00 | 0.00 | 93 | 1010.8 |
| 20260503054600 | 49 | 252 | 2.0 | 5.0 | 0.00 | 0.00 | 0.00 | 92 | 1010.8 |
| 20260503054047 | 49 | 225 | 2.0 | 4.0 | 0.00 | 0.00 | 0.00 | 93 | 1010.8 |
| 20260503053546 | 49 | 247 | 2.0 | 4.0 | 0.00 | 0.00 | 0.00 | 93 | 1010.8 |
| 20260503053048 | 48 | 218 | 2.0 | 3.0 | 0.00 | 0.00 | 0.00 | 93 | 1010.7 |
| 20260503052535 | 48 | 218 | 2.0 | 3.0 | 0.00 | 0.00 | 0.00 | 94 | 1010.7 |
| 20260503052236 | 48 | 219 | 2.0 | 3.0 | 0.00 | 0.00 | 0.00 | 96 | 1010.7 |
| 20260503052118 | 48 | 223 | 2.0 | 3.0 | 0.00 | 0.00 | 0.00 | 95 | 1010.7 |
| 20260503051033 | 48 | 222 | 2.0 | 3.0 | 0.00 | 0.00 | 0.00 | 95 | 1010.7 |
| 20260503050534 | 48 | 214 | 2.0 | 3.0 | 0.00 | 0.00 | 0.00 | 96 | 1010.7 |
| 20260503050020 | 48 | 223 | 2.0 | 3.0 | 0.00 | 0.00 | 0.00 | 97 | 1010.7 |
| 20260503045519 | 47 | 220 | 1.0 | 2.0 | 0.00 | 0.00 | 0.00 | 98 | 1010.7 |
| 20260503045017 | 47 | 220 | 1.0 | 3.0 | 0.00 | 0.00 | 0.00 | 98 | 1010.8 |
| 20260503044518 | 47 | 230 | 1.0 | 3.0 | 0.00 | 0.00 | 0.00 | 99 | 1010.8 |
| 20260503044018 | 47 | 226 | 1.0 | 2.0 | 0.00 | 0.00 | 0.00 | 99 | 1010.9 |
| 20260503043736 | 47 | 231 | 1.0 | 2.0 | 0.00 | 0.00 | 0.00 | 99 | 1010.8 |
| 20260503043021 | 47 | 232 | 1.0 | 2.0 | 0.00 | 0.00 | 0.00 | 100 | 1011.0 |
| 20260503042505 | 46 | 218 | 2.0 | 2.0 | 0.00 | 0.00 | 0.00 | 99 | 1011.0 |
| 20260503042002 | 46 | 214 | 2.0 | 3.0 | 0.00 | 0.00 | 0.00 | 99 | 1011.0 |
| 20260503041503 | 46 | 220 | 2.0 | 3.0 | 0.00 | 0.00 | 0.00 | 99 | 1011.0 |
| 20260503041001 | 46 | 226 | 2.0 | 2.0 | 0.00 | 0.00 | 0.00 | 99 | 1010.9 |
| 20260503040501 | 46 | 218 | 2.0 | 2.0 | 0.00 | 0.00 | 0.00 | 98 | 1011.0 |
| 20260503040002 | 46 | 216 | 2.0 | 2.0 | 0.00 | 0.00 | 0.00 | 98 | 1011.0 |
| 20260503035502 | 46 | 209 | 2.0 | 2.0 | 0.00 | 0.00 | 0.00 | 97 | 1011.0 |